When you browse on this site, cookies collect data to enhance your experience and personalize the content and advertising you see.
Visit our Privacy Policy to learn more. By continuing to use the site, you agree to this use of cookies and data.
  • In Netherlands
  • List of Countries
  • For 7 days
  • Water Temperature
  • Satellite Maps
  • Weather Map
  • Weather Widgets
  • user-avatar
    Login

    Hourly Weather Ghazni

    Today, 22 May, Wednesday

    Time Temperature Precipitation Wind Pressure Humidity
    00:00 +17°C° 0 mm 2 mps 589 mmHg 42%
    01:00 +18°C° 0 mm 1 mps 588 mmHg 44%
    02:00 +15°C° 0 mm 0 mps 588 mmHg 47%
    03:00 +15°C° 0 mm 0 mps 588 mmHg 47%
    04:00 +16°C° 0 mm 1 mps 588 mmHg 48%
    05:00 +15°C° 0 mm 1 mps 587 mmHg 51%
    06:00 +16°C° 0 mm 1 mps 587 mmHg 48%
    07:00 +16°C° 0 mm 1 mps 588 mmHg 45%
    08:00 +18°C° 0 mm 1 mps 588 mmHg 42%
    09:00 +19°C° 0 mm 1 mps 588 mmHg 39%
    10:00 +20°C° 0 mm 1 mps 588 mmHg 36%
    11:00 +20°C° 0 mm 2 mps 588 mmHg 33%
    12:00 +21°C° 0 mm 3 mps 588 mmHg 32%
    13:00 +21°C° 0 mm 3 mps 589 mmHg 30%
    14:00 +22°C° 0 mm 4 mps 589 mmHg 29%
    15:00 +22°C° 0.1 mm 4 mps 588 mmHg 29%
    16:00 +22°C° 0.1 mm 4 mps 588 mmHg 30%
    17:00 +22°C° 0.1 mm 4 mps 588 mmHg 30%
    18:00 +21°C° 0.1 mm 4 mps 588 mmHg 32%
    19:00 +21°C° 0.1 mm 4 mps 588 mmHg 34%
    20:00 +20°C° 0.1 mm 3 mps 588 mmHg 37%
    21:00 +20°C° 0 mm 3 mps 588 mmHg 40%
    22:00 +19°C° 0 mm 2 mps 587 mmHg 44%
    23:00 +18°C° 0 mm 2 mps 587 mmHg 47%

    Tomorrow, 23 May, Thursday

    Time Temperature Precipitation Wind Pressure Humidity
    00:00 +18°C° 0.1 mm 2 mps 587 mmHg 51%
    01:00 +17°C° 0.1 mm 2 mps 586 mmHg 54%
    02:00 +16°C° 0.1 mm 1 mps 586 mmHg 58%
    03:00 +16°C° 0.2 mm 1 mps 585 mmHg 59%
    04:00 +15°C° 0.2 mm 1 mps 585 mmHg 61%
    05:00 +14°C° 0.2 mm 2 mps 585 mmHg 63%
    06:00 +15°C° 0 mm 2 mps 585 mmHg 60%
    07:00 +15°C° 0 mm 2 mps 585 mmHg 58%
    08:00 +16°C° 0 mm 2 mps 586 mmHg 56%
    09:00 +17°C° 0 mm 2 mps 586 mmHg 51%
    10:00 +18°C° 0 mm 3 mps 586 mmHg 46%
    11:00 +20°C° 0 mm 3 mps 587 mmHg 42%
    12:00 +21°C° 0 mm 4 mps 587 mmHg 36%
    13:00 +22°C° 0 mm 5 mps 587 mmHg 31%
    14:00 +24°C° 0 mm 6 mps 588 mmHg 25%
    15:00 +24°C° 0 mm 7 mps 587 mmHg 25%
    16:00 +24°C° 0 mm 9 mps 587 mmHg 24%
    17:00 +24°C° 0 mm 10 mps 587 mmHg 24%
    18:00 +23°C° 0 mm 9 mps 587 mmHg 25%
    19:00 +22°C° 0 mm 8 mps 587 mmHg 27%
    20:00 +21°C° 0 mm 7 mps 587 mmHg 28%
    21:00 +20°C° 0 mm 7 mps 587 mmHg 30%
    22:00 +19°C° 0 mm 6 mps 587 mmHg 32%
    23:00 +17°C° 0 mm 5 mps 587 mmHg 35%

    Day after tomorrow, 24 May, Friday

    Time Temperature Precipitation Wind Pressure Humidity
    00:00 +18°C° 0 mm 4 mps 586 mmHg 37%
    01:00 +17°C° 0 mm 3 mps 586 mmHg 39%
    02:00 +16°C° 0 mm 3 mps 586 mmHg 40%
    03:00 +16°C° 0 mm 2 mps 585 mmHg 43%
    04:00 +15°C° 0 mm 2 mps 585 mmHg 45%
    05:00 +14°C° 0 mm 2 mps 585 mmHg 47%
    06:00 +15°C° 0 mm 2 mps 586 mmHg 44%
    07:00 +16°C° 0 mm 3 mps 586 mmHg 40%
    08:00 +17°C° 0 mm 4 mps 587 mmHg 36%
    09:00 +18°C° 0 mm 4 mps 587 mmHg 33%
    10:00 +20°C° 0 mm 5 mps 588 mmHg 29%
    11:00 +21°C° 0 mm 6 mps 588 mmHg 25%
    12:00 +21°C° 0 mm 6 mps 588 mmHg 24%
    13:00 +22°C° 0 mm 7 mps 589 mmHg 22%
    14:00 +23°C° 0 mm 7 mps 589 mmHg 21%
    15:00 +23°C° 0 mm 7 mps 588 mmHg 20%
    16:00 +23°C° 0 mm 6 mps 588 mmHg 20%
    17:00 +23°C° 0 mm 5 mps 588 mmHg 19%
    18:00 +23°C° 0 mm 4 mps 588 mmHg 21%
    19:00 +22°C° 0 mm 4 mps 588 mmHg 23%
    20:00 +21°C° 0 mm 3 mps 588 mmHg 25%
    21:00 +20°C° 0 mm 3 mps 589 mmHg 28%
    22:00 +19°C° 0 mm 3 mps 589 mmHg 31%
    23:00 +18°C° 0 mm 2 mps 589 mmHg 34%

    25 May, Saturday

    Time Temperature Precipitation Wind Pressure Humidity
    00:00 +18°C° 0 mm 2 mps 588 mmHg 36%
    01:00 +17°C° 0 mm 2 mps 588 mmHg 39%
    02:00 +16°C° 0 mm 2 mps 587 mmHg 41%
    03:00 +16°C° 0 mm 2 mps 587 mmHg 42%
    04:00 +15°C° 0 mm 2 mps 587 mmHg 44%
    05:00 +15°C° 0 mm 2 mps 587 mmHg 45%
    06:00 +16°C° 0 mm 2 mps 587 mmHg 42%
    07:00 +18°C° 0 mm 1 mps 588 mmHg 38%
    08:00 +19°C° 0 mm 1 mps 588 mmHg 35%
    09:00 +20°C° 0 mm 1 mps 589 mmHg 30%
    10:00 +21°C° 0 mm 1 mps 589 mmHg 26%
    11:00 +23°C° 0 mm 1 mps 589 mmHg 21%
    12:00 +24°C° 0 mm 1 mps 589 mmHg 19%
    13:00 +25°C° 0 mm 1 mps 589 mmHg 17%
    14:00 +26°C° 0 mm 1 mps 589 mmHg 15%
    15:00 +26°C° 0 mm 1 mps 589 mmHg 15%
    16:00 +27°C° 0 mm 1 mps 589 mmHg 14%
    17:00 +27°C° 0 mm 1 mps 589 mmHg 14%
    18:00 +26°C° 0 mm 2 mps 589 mmHg 16%
    19:00 +26°C° 0 mm 3 mps 589 mmHg 18%
    20:00 +25°C° 0 mm 3 mps 589 mmHg 20%
    21:00 +23°C° 0 mm 4 mps 589 mmHg 22%
    22:00 +22°C° 0 mm 4 mps 588 mmHg 25%
    23:00 +21°C° 0 mm 4 mps 588 mmHg 28%

    26 May, Sunday

    Time Temperature Precipitation Wind Pressure Humidity
    00:00 +20°C° 0 mm 4 mps 588 mmHg 30%
    01:00 +19°C° 0 mm 4 mps 587 mmHg 31%
    02:00 +18°C° 0 mm 3 mps 587 mmHg 33%
    03:00 +17°C° 0 mm 4 mps 587 mmHg 36%
    04:00 +17°C° 0 mm 4 mps 586 mmHg 38%
    05:00 +15°C° 0 mm 4 mps 586 mmHg 41%
    06:00 +17°C° 0 mm 4 mps 587 mmHg 37%
    07:00 +16°C° 0 mm 5 mps 587 mmHg 34%
    08:00 +17°C° 0 mm 5 mps 588 mmHg 31%
    09:00 +19°C° 0 mm 5 mps 588 mmHg 26%
    10:00 +20°C° 0 mm 5 mps 589 mmHg 21%
    11:00 +21°C° 0 mm 5 mps 589 mmHg 15%
    12:00 +22°C° 0 mm 4 mps 589 mmHg 13%
    13:00 +23°C° 0 mm 4 mps 589 mmHg 12%
    14:00 +25°C° 0 mm 3 mps 589 mmHg 10%
    15:00 +25°C° 0 mm 3 mps 589 mmHg 9%
    16:00 +26°C° 0 mm 3 mps 589 mmHg 9%
    17:00 +26°C° 0 mm 3 mps 589 mmHg 8%
    18:00 +25°C° 0 mm 4 mps 589 mmHg 10%
    19:00 +23°C° 0 mm 4 mps 589 mmHg 11%
    20:00 +22°C° 0 mm 5 mps 589 mmHg 13%
    21:00 +21°C° 0 mm 5 mps 588 mmHg 15%
    22:00 +20°C° 0 mm 4 mps 588 mmHg 18%
    23:00 +19°C° 0 mm 3 mps 588 mmHg 20%

    27 May, Monday

    Time Temperature Precipitation Wind Pressure Humidity
    00:00 +18°C° 0 mm 3 mps 588 mmHg 22%
    01:00 +17°C° 0 mm 3 mps 587 mmHg 23%
    02:00 +16°C° 0 mm 3 mps 587 mmHg 25%
    03:00 +16°C° 0 mm 3 mps 587 mmHg 27%
    04:00 +14°C° 0 mm 3 mps 586 mmHg 29%
    05:00 +13°C° 0 mm 3 mps 586 mmHg 31%
    06:00 +14°C° 0 mm 3 mps 587 mmHg 28%
    07:00 +16°C° 0 mm 3 mps 588 mmHg 26%
    08:00 +17°C° 0 mm 3 mps 588 mmHg 23%
    09:00 +19°C° 0 mm 3 mps 589 mmHg 19%
    10:00 +21°C° 0 mm 2 mps 589 mmHg 15%
    11:00 +23°C° 0 mm 2 mps 590 mmHg 11%
    12:00 +24°C° 0 mm 2 mps 590 mmHg 10%
    13:00 +25°C° 0 mm 2 mps 590 mmHg 9%
    14:00 +26°C° 0 mm 2 mps 589 mmHg 8%
    15:00 +27°C° 0 mm 2 mps 589 mmHg 8%
    16:00 +27°C° 0 mm 2 mps 589 mmHg 7%
    17:00 +27°C° 0 mm 2 mps 589 mmHg 7%
    18:00 +26°C° 0 mm 3 mps 589 mmHg 9%
    19:00 +25°C° 0 mm 3 mps 589 mmHg 10%
    20:00 +24°C° 0 mm 3 mps 589 mmHg 11%
    21:00 +22°C° 0 mm 3 mps 589 mmHg 12%
    22:00 +21°C° 0 mm 3 mps 589 mmHg 13%
    23:00 +20°C° 0 mm 3 mps 589 mmHg 14%
    Show more